Tracking 32418 objects as of 9-Dec-2025
HD Live streaming from Space Station
objects crossing your sky now

THOR ABLESTAR DEB

Track THOR ABLESTAR DEB now!
10-day predictions


NORAD ID: 119
Int'l Code: 1961-015D
Perigee: 739.6 km
Apogee: 878.4 km
Inclination: 66.7 °
Period: 100.9 minutes
Semi major axis: 7179 km
RCS: 0.2611 m2 (medium)
Launch date: June 29, 1961
Source: United States (US)
Launch site: AIR FORCE EASTERN TEST RANGE (AFETR)

Note: This is SATELLITE DEBRIS
Your satellite tracking list
Your tracking list is empty




NASA's NSSDC Master Catalog

Two Line Element Set (TLE):
1   119U 61015D   25342.90064111  .00000275  00000-0  14064-3 0  9994
2   119  66.7254 163.5453 0096635  34.8987 325.8394 14.26977498331163
Source of the keplerian elements: AFSPC